Wetbulb
61.25 58.33 59.13 60.32 59.29 58.16 58.13 58.48 61.73 62.54 63.41 64.40 64.56 64.57 65.24 62.90 62.38 64.29 62.08 61.84 61.90 59.85
60.85 60.62 59.49 61.98 62.03 58.10 60.62 57.81 60.17 61.41 62.10 61.45 61.50 63.43 64.52 62.84 62.67 63.05 62.86 63.08 62.22 60.47
59.37 59.68 58.32 56.26 56.01 56.01 56.15 57.34 57.62 58.14 59.49 60.60 61.00 61.80 63.19 61.45 62.45 60.34 60.98 60.14 62.29 61.50
57.10 56.25 56.04 55.35 54.90 54.73 54.82 54.88 54.95 55.21 55.34 55.82 58.20 60.13 60.95 62.11 60.02 58.58 58.48 60.72 59.45 59.30
54.31 54.13 53.97 53.20 53.53 53.56 53.15 53.91 53.80 53.92 53.93 53.67 55.99 58.20 58.24 57.43 54.81 54.82 56.95 57.47 58.24 58.06
52.26 52.87 52.41 53.36 53.52 53.13 52.66 51.64 53.14 52.95 53.07 53.10 53.29 54.19 54.14 54.78 54.53 54.50 55.35 55.41 56.10 57.61
50.78 51.27 51.28 51.94 51.84 51.52 52.44 51.67 51.91 52.31 53.01 52.78 52.15 52.58 50.41 51.23 52.06 52.04 53.04 55.14 55.31 56.65
49.92 50.09 49.92 50.32 50.53 51.00 50.98 51.31 51.16 49.87 50.90 52.81 51.80 51.41 52.34 49.79 50.03 51.63 52.20 53.00 55.15 55.54
47.39 47.62 47.97 48.86 48.34 48.71 48.86 49.90 49.78 48.07 48.30 49.26 50.82 48.54 48.83 50.25 52.06 51.97 52.44 50.49 53.33 53.63
46.37 46.10 46.37 47.39 48.55 47.73 47.67 47.90 47.26 47.12 47.44 47.21 49.53 46.95 46.63 47.95 50.51 50.59 51.73 50.40 51.61 52.52
46.09 45.93 46.61 47.39 47.17 47.61 47.41 47.39 47.12 46.97 47.56 47.39 49.23 46.75 45.54 46.39 50.27 50.26 49.92 51.75 51.94 51.87
46.26 46.16 47.17 46.52 47.66 48.25 47.64 46.57 46.57 47.82 47.98 47.85 49.69 46.62 45.22 46.32 49.64 49.19 50.24 50.41 50.34 51.16
46.76 46.61 47.77 48.41 48.36 48.33 47.60 46.99 46.81 47.38 49.45 48.92 49.98 46.42 44.54 45.31 48.47 48.30 48.08 50.01 52.54 48.88
47.41 48.39 49.28 49.16 48.37 47.34 47.17 47.02 47.26 46.69 47.93 49.40 50.12 50.00 44.03 43.67 49.26 49.05 48.26 48.91 50.41 53.86
MSLP
1016.39 1016.09 1015.71 1015.41 1015.50 1015.30 1015.20 1015.10 1015.03 1014.77 1014.51 1014.26 1013.99 1014.26 1014.62 1014.74 1014.58 1014.61 1014.52 1014.66 1014.79 1014.42
1015.87 1015.72 1015.48 1015.32 1015.18 1015.02 1015.05 1015.03 1014.85 1014.69 1014.31 1014.08 1013.90 1013.78 1014.07 1014.17 1014.10 1014.13 1014.13 1014.12 1014.26 1014.39
1015.32 1015.24 1015.22 1015.61 1015.56 1015.50 1015.32 1015.30 1015.09 1014.69 1014.17 1013.79 1013.59 1013.40 1013.49 1013.47 1013.36 1013.56 1013.58 1013.58 1013.49 1013.65
1014.93 1015.21 1015.32 1015.29 1015.12 1015.10 1015.04 1015.16 1014.91 1014.44 1014.06 1013.78 1013.28 1012.87 1012.81 1012.71 1012.87 1012.84 1013.23 1013.20 1013.08 1013.13
1015.18 1015.30 1015.19 1015.05 1014.97 1014.90 1014.88 1014.72 1014.29 1013.86 1013.44 1013.27 1012.74 1012.35 1012.00 1012.18 1012.46 1012.80 1012.28 1012.55 1012.79 1012.68
1015.36 1015.23 1014.98 1014.75 1014.66 1014.51 1014.27 1014.18 1013.83 1013.40 1013.00 1012.63 1012.35 1012.12 1012.16 1011.91 1011.79 1012.03 1012.21 1012.22 1012.50 1012.12
1015.27 1014.97 1014.84 1014.49 1014.31 1014.08 1013.72 1013.47 1013.21 1012.90 1012.36 1011.98 1011.94 1011.78 1012.08 1012.27 1012.08 1012.47 1012.32 1012.15 1011.94 1012.01
1015.08 1014.79 1014.42 1013.98 1013.61 1013.43 1013.17 1012.79 1012.53 1012.51 1012.13 1011.42 1011.46 1011.20 1010.89 1011.56 1011.70 1011.75 1012.10 1011.78 1011.74 1011.52
1014.81 1014.35 1013.90 1013.45 1013.11 1012.79 1012.47 1012.17 1012.03 1011.99 1011.75 1011.26 1010.85 1010.84 1010.95 1010.89 1010.70 1010.87 1010.86 1011.20 1011.29 1010.95
1014.21 1013.65 1013.25 1012.81 1012.24 1012.00 1011.68 1011.49 1011.32 1011.19 1011.01 1010.73 1010.39 1010.24 1010.34 1010.38 1010.37 1010.41 1010.46 1010.77 1010.91 1010.43
1013.46 1012.88 1012.44 1011.93 1011.50 1011.16 1010.92 1010.71 1010.49 1010.29 1010.11 1009.96 1009.61 1009.44 1009.62 1009.86 1009.94 1009.90 1009.96 1010.04 1010.05 1010.22
1012.58 1012.07 1011.54 1011.13 1010.70 1010.30 1010.08 1009.92 1009.70 1009.37 1009.14 1009.04 1008.68 1008.69 1008.90 1009.18 1009.19 1009.15 1009.20 1009.37 1009.59 1009.72
1011.84 1011.31 1010.66 1010.23 1009.84 1009.53 1009.45 1009.14 1008.92 1008.53 1008.08 1007.85 1007.64 1007.64 1007.96 1008.31 1008.38 1008.35 1008.52 1008.47 1008.39 1008.64
1011.04 1010.45 1009.93 1009.49 1009.25 1008.99 1008.82 1008.48 1008.14 1007.84 1007.48 1007.14 1006.90 1006.83 1007.11 1007.41 1007.49 1007.42 1007.56 1007.65 1007.76 1007.88
Wind_Speed
14 12 13 13 12 11 11 12 15 14 13 13 13 12 13 9 10 10 10 9 7 7
13 14 14 15 12 12 11 12 14 15 14 13 13 13 12 12 12 11 8 8 9 8
15 15 11 10 11 12 12 15 15 16 16 15 16 16 15 13 14 12 11 10 9 8
14 14 14 14 14 13 14 15 16 16 15 15 17 17 15 16 15 15 13 13 11 11
17 16 15 15 14 13 12 15 17 15 16 15 18 17 16 15 8 10 12 13 14 14
13 13 14 13 13 14 14 13 17 16 15 15 15 14 11 13 11 11 11 10 13 14
17 17 16 15 14 15 15 14 15 15 15 15 15 14 7 7 6 8 10 13 12 14
17 18 16 16 16 15 14 14 16 13 16 16 12 12 16 11 11 10 14 14 16 15
16 16 15 15 15 14 14 14 13 13 14 14 11 10 16 15 12 14 15 11 15 15
15 15 14 15 15 14 14 13 12 13 13 13 15 12 14 14 10 10 12 10 12 9
15 14 14 15 13 14 11 12 11 12 12 13 12 13 11 10 12 10 11 14 11 11
14 14 14 13 14 11 10 9 11 12 13 12 13 14 16 14 12 14 14 12 13 15
14 13 14 13 11 9 8 11 9 11 11 14 13 11 11 13 9 11 9 13 14 13
12 13 12 10 8 9 10 10 10 10 10 11 9 8 8 12 12 10 9 8 8 8
Wind_Direction
298 289 287 276 277 293 301 298 299 297 289 279 266 251 250 259 237 235 224 230 249 276
286 284 285 287 280 273 287 291 287 291 283 286 280 256 241 240 236 243 233 231 233 250
304 295 317 331 317 308 304 301 294 288 282 273 274 271 251 239 230 235 230 235 235 240
303 309 299 292 289 289 294 288 281 283 285 288 278 269 251 242 232 232 228 233 240 244
314 301 294 291 286 283 278 285 282 277 270 278 274 270 261 239 231 256 240 236 243 245
298 294 291 294 289 282 274 270 280 284 278 269 271 281 295 253 232 235 242 237 252 247
295 292 296 288 286 284 281 278 278 277 275 271 270 261 254 289 278 269 273 254 244 260
296 296 287 289 286 281 278 277 274 287 291 278 271 272 253 223 249 248 248 253 258 240
286 283 282 282 280 281 279 273 272 272 274 276 267 251 268 285 256 253 251 260 254 248
284 281 280 278 276 273 271 272 265 262 261 266 274 256 237 238 248 250 257 236 254 261
282 277 276 275 272 272 268 265 263 261 256 257 258 239 248 229 250 243 242 251 256 261
286 283 280 278 275 269 269 267 264 261 258 255 255 230 230 225 234 234 236 241 243 246
287 281 281 278 279 277 264 266 262 267 269 256 257 253 227 215 230 239 240 239 229 221
285 281 275 278 278 277 276 276 272 264 275 281 276 266 212 214 235 230 225 228 233 215